Detroit, MI

11:39 AM EDT on May 25, 2018 (GMT -0400)
Detroit City

Weather History for KDET - March, 2014

Change the Weather History Date:

Tuesday, March 25, 2014

  Actual Average Record
Temperature  
Mean Temperature 26 °F -  
Max Temperature 35 °F 45 °F 74 °F (1986)
Min Temperature 19 °F 29 °F 8 °F (1974)
Degree Days  
Heating Degree Days 39    
Moisture  
Dew Point 15 °F    
Average Humidity 65    
Maximum Humidity 86    
Minimum Humidity 38    
Precipitation  
Precipitation 0.00 in - - ()
Sea Level Pressure  
Sea Level Pressure 30.02 in    
Wind  
Wind Speed 8 mph (WNW)    
Max Wind Speed 16 mph    
Max Gust Speed 25 mph    
Visibility 7 miles    
Events Snow    
Averages and records for this station are not official NWS values.
T = Trace of Precipitation, MM = Missing Value Source: NWS Daily Summary

Daily Weather History Graph

Daily Weather History Graph

Search for Another Location

Airport or City:

Astronomy

Mar. 25, 2014 Rise Set
Actual Time 7:26 AM EDT 7:50 PM EDT
Civil Twilight 6:58 AM EDT 8:18 PM EDT
Nautical Twilight 6:25 AM EDT 8:51 PM EDT
Astronomical Twilight 5:51 AM EDT 9:25 PM EDT
Moon 3:53 AM EDT 2:13 PM EDT
Length of Visible Light 13h 19m
Length of Day
12h 23m
Waning Crescent, 32% of the Moon is Illuminated
Mar 25
Waning Crescent
Mar 30
New
Apr 7
First Quarter
Apr 15
Full
Apr 22
Last Quarter

Hourly Weather History & Observations

Time (EDT) Temp. Windchill Dew Point Humidity Pressure Visibility Wind Dir Wind Speed Gust Speed Precip Events Conditions
12:53 AM 25.0 °F 20.7 °F 9.0 °F 51% 30.11 in 10.0 mi WSW 3.5 mph - N/A   Clear
1:53 AM 23.0 °F - 9.0 °F 55% 30.08 in 10.0 mi Calm Calm - N/A   Clear
2:53 AM 21.9 °F - 10.0 °F 60% 30.06 in 10.0 mi Calm Calm - N/A   Clear
3:53 AM 21.9 °F 15.7 °F 10.9 °F 63% 30.03 in 10.0 mi South 4.6 mph - N/A   Clear
4:53 AM 23.0 °F 15.8 °F 10.9 °F 60% 30.01 in 10.0 mi South 5.8 mph - N/A   Clear
5:53 AM 24.1 °F 15.2 °F 12.9 °F 62% 29.97 in 10.0 mi South 8.1 mph - N/A   Partly Cloudy
6:53 AM 25.0 °F 16.3 °F 14.0 °F 63% 29.96 in 10.0 mi South 8.1 mph - N/A   Overcast
7:53 AM 27.0 °F 18.7 °F 15.1 °F 61% 29.95 in 10.0 mi SSW 8.1 mph - N/A   Overcast
8:53 AM 27.0 °F 14.7 °F 12.9 °F 56% 29.96 in 3.0 mi WSW 16.1 mph 20.7 mph 0.00 in Snow Light Snow
8:55 AM 26.6 °F 14.7 °F 15.8 °F 64% 29.93 in 2.0 mi WSW 15.0 mph 20.7 mph 0.00 in Snow Light Snow
9:02 AM 24.8 °F 14.6 °F 17.6 °F 74% 29.93 in 1.5 mi WSW 10.4 mph - 0.00 in Snow Light Snow
9:08 AM 26.6 °F 16.8 °F 17.6 °F 69% 29.93 in 3.0 mi WSW 10.4 mph - 0.00 in Snow Light Snow
9:21 AM 26.6 °F 15.7 °F 17.6 °F 69% 29.93 in 8.0 mi WSW 12.7 mph - 0.00 in   Overcast
9:53 AM 27.0 °F 16.1 °F 19.0 °F 72% 29.95 in 7.0 mi WSW 12.7 mph - 0.00 in   Overcast
10:53 AM 30.0 °F 21.7 °F 19.0 °F 64% 29.95 in 8.0 mi West 9.2 mph - N/A   Overcast
11:25 AM 28.4 °F 19.7 °F 21.2 °F 74% 29.93 in 2.5 mi SW 9.2 mph - 0.00 in Snow Light Snow
11:39 AM 28.4 °F 20.4 °F 21.2 °F 74% 29.93 in 3.0 mi WSW 8.1 mph - 0.00 in Snow Light Snow
11:47 AM 28.4 °F 19.1 °F 21.2 °F 74% 29.94 in 1.8 mi West 10.4 mph - 0.00 in Snow Light Snow
11:53 AM 27.0 °F 16.1 °F 21.0 °F 78% 29.97 in 0.5 mi WNW 12.7 mph - 0.00 in Snow Snow
12:11 PM 28.4 °F 21.2 °F 21.2 °F 74% 29.94 in 1.2 mi NW 6.9 mph - 0.00 in Snow Light Snow
12:18 PM 28.4 °F 20.4 °F 21.2 °F 74% 29.94 in 3.0 mi West 8.1 mph - 0.00 in Snow Light Snow
12:31 PM 28.4 °F 20.4 °F 21.2 °F 74% 29.94 in 9.0 mi WNW 8.1 mph - 0.00 in   Overcast
12:53 PM 30.0 °F 23.2 °F 19.9 °F 66% 29.96 in 10.0 mi WNW 6.9 mph - 0.00 in   Overcast
1:53 PM 32.0 °F 23.0 °F 21.0 °F 64% 29.97 in 10.0 mi WNW 11.5 mph 19.6 mph 0.00 in   Scattered Clouds
2:53 PM 33.1 °F 23.0 °F 12.0 °F 42% 29.96 in 10.0 mi WNW 15.0 mph 25.3 mph N/A   Mostly Cloudy
3:53 PM 33.1 °F 23.0 °F 10.0 °F 38% 29.96 in 10.0 mi West 15.0 mph 21.9 mph N/A   Mostly Cloudy
4:53 PM 30.9 °F 22.8 °F 14.0 °F 50% 29.98 in 9.0 mi WNW 9.2 mph 21.9 mph 0.00 in   Mostly Cloudy
5:53 PM 28.9 °F 19.2 °F 12.9 °F 51% 29.99 in 10.0 mi West 11.5 mph 24.2 mph N/A   Overcast
6:53 PM 28.9 °F 19.2 °F 12.0 °F 49% 30.02 in 10.0 mi WNW 11.5 mph 24.2 mph N/A   Mostly Cloudy
7:53 PM 28.0 °F 17.5 °F 10.9 °F 49% 30.04 in 10.0 mi NNW 12.7 mph 19.6 mph 0.00 in   Overcast
8:53 PM 25.0 °F 14.2 °F 12.0 °F 58% 30.09 in 10.0 mi NW 11.5 mph 19.6 mph N/A   Scattered Clouds
9:53 PM 24.1 °F 17.0 °F 12.0 °F 60% 30.12 in 10.0 mi NW 5.8 mph - N/A   Mostly Cloudy
10:12 PM 24.8 °F 15.3 °F 15.8 °F 69% 30.10 in 10.0 mi North 9.2 mph - N/A   Overcast
10:38 PM 21.2 °F 8.3 °F 14.0 °F 74% 30.12 in 1.8 mi North 13.8 mph - 0.00 in Snow Light Snow
10:46 PM 19.4 °F 5.0 °F 15.8 °F 86% 30.12 in 1.0 mi North 16.1 mph - 0.00 in Snow Light Snow
10:53 PM 19.9 °F 7.9 °F 15.1 °F 81% 30.17 in 1.2 mi North 11.5 mph 21.9 mph 0.00 in Snow Light Snow
11:05 PM 19.4 °F 7.2 °F 15.8 °F 86% 30.13 in 3.0 mi North 11.5 mph - 0.00 in Snow Light Snow
11:11 PM 19.4 °F 7.2 °F 14.0 °F 80% 30.13 in 2.5 mi North 11.5 mph - 0.00 in Snow Light Snow
11:22 PM 21.2 °F 9.5 °F 12.2 °F 68% 30.14 in 6.0 mi North 11.5 mph 18.4 mph 0.00 in Snow Light Snow
11:39 PM 21.2 °F 9.5 °F 10.4 °F 63% 30.14 in 10.0 mi North 11.5 mph 18.4 mph 0.00 in   Overcast
11:53 PM 21.0 °F 8.6 °F 10.0 °F 63% 30.17 in 10.0 mi North 12.7 mph - 0.00 in   Overcast